Tracking 20623 objects as of 5-Apr-2020
HD Live streaming from Space Station
objects crossing your sky now

SL-3 DEB

Track SL-3 DEB now!
10-day predictions


NORAD ID: 14229
Int'l Code: 1983-075D
Perigee: 560.1 km
Apogee: 600.4 km
Inclination: 97.6 °
Period: 96.1 minutes
Semi major axis: 6951 km
RCS: 0.0149 m2 (small)
Launch date: July 24, 1983
Source: Commonwealth of Independent States (former USSR) (CIS)
Launch site: TYURATAM MISSILE AND SPACE COMPLEX (TTMTR)

Note: This is SATELLITE DEBRIS
aabbcc
Your satellite tracking list
Your tracking list is empty




NASA's NSSDC Master Catalog

Two Line Element Set (TLE):
1 14229U 83075D   20095.17489208 +.00000183 +00000-0 +20274-4 0  9997
2 14229 097.5832 062.8155 0028981 053.0492 318.9583 14.97997877991455
Source of the keplerian elements: AFSPC